Weather observations for the past three days for
Northway, Northway Airport
Metric (Imperial)
Date Time (akdt) Wind (kph) Vis. (km) Weather Sky Cond. Temperature (ºC) Relative Humidity Wind Chill (°C) Heat Index (°C) Pressure Precipitation (cm)
Air Dwpt 6 hour altimeter (cm) sea level (mb) 1 hr 3 hr 6 hr
Max. Min.
16 04:53 SW 6 16.09 Partly Cloudy FEW120 SCT180 8.9 5.6 80% 76.43 1018.5
16 03:53 SW 6 16.09 Partly Cloudy FEW120 SCT180 8.9 6.1 18.3 8.9 83% 76.43 1018.6
16 02:53 W 6 16.09 Partly Cloudy SCT120 9.4 7.2 86% 76.4 1018.5
16 01:53 Calm 16.09 Partly Cloudy SCT110 11.1 7.2 77% 76.4 1018.3
16 00:53 Calm 16.09 A Few Clouds FEW100 10.6 8.3 86% 76.38 1018.0
15 23:53 SW 6 16.09 Partly Cloudy FEW050 SCT100 13.3 7.8 70% 76.35 1017.6
15 22:53 Calm 16.09 Mostly Cloudy FEW050 BKN100 15.6 7.2 58% 76.33 1017.2
15 21:53 SW 6 16.09 Mostly Cloudy FEW050 BKN100 18.3 5.6 25.6 17.8 43% 76.3 1016.8
15 20:53 NW 9 16.09 Overcast OVC090 18.3 7.2 49% 76.28 1016.6
15 19:53 NW 17 G 30 16.09 A Few Clouds FEW120 22.2 6.7 37% 76.25 1016.1
15 18:53 NW 17 G 43 16.09 Partly Cloudy SCT120 23.3 6.1 33% 76.25 1016.1
15 17:53 W 6 16.09 Partly Cloudy SCT120 22.2 3.3 29% 76.25 1016.4
15 16:53 NE 9 16.09 Partly Cloudy SCT050 SCT110 25.6 3.3 24% 25 76.25 1016.4
15 15:53 E 7 16.09 Partly Cloudy SCT070 SCT110 23.3 2.2 24.4 18.3 25% 76.3 1016.9
15 14:53 SW 6 16.09 Mostly Cloudy FEW080 BKN090 22.2 5 33% 76.3 1017.0
15 13:53 Vrbl 6 16.09 Partly Cloudy SCT070 21.1 5 35% 76.33 1017.6
15 12:53 Calm 16.09 Partly Cloudy SCT040 SCT090 21.7 6.7 38% 76.35 1017.7
15 11:53 Calm 16.09 Partly Cloudy SCT040 20 6.1 40% 76.4 1018.3
15 10:53 Vrbl 7 16.09 Fair CLR 20 7.8 45% 76.43 1018.7
15 09:53 Vrbl 6 16.09 A Few Clouds FEW035 18.3 7.8 18.3 8.3 51% 76.45 1019.0
15 08:53 Calm 16.09 Fair CLR 16.7 8.9 60% 76.45 1019.3
15 07:53 Calm 16.09 Fair CLR 15 9.4 69% 76.45 1019.2
15 06:53 Vrbl 7 16.09 Mostly Cloudy BKN110 13.3 8.3 72% 76.48 1019.2
15 05:53 Calm 16.09 Partly Cloudy SCT120 9.4 6.7 83% 76.45 1019.5
15 04:53 Calm 12.87 A Few Clouds FEW120 8.3 6.1 86% 76.43 1019.5
15 03:53 Calm 16.09 Partly Cloudy SCT120 9.4 6.7 14.4 9.4 83% 76.43 1019.7
15 02:53 NW 11 16.09 Partly Cloudy SCT120 11.1 7.2 77% 76.4 1019.2
15 01:53 NW 9 16.09 Partly Cloudy FEW090 SCT120 10.6 7.2 80% 76.4 1018.7
15 00:53 Vrbl 6 16.09 Partly Cloudy FEW090 SCT120 11.1 6.7 75% 76.4 1018.4
14 23:53 W 6 16.09 Partly Cloudy FEW090 SCT120 12.2 6.7 69% 76.38 1018.0
14 22:53 NW 9 16.09 Partly Cloudy FEW090 SCT120 12.8 6.7 67% 76.35 1017.8
14 21:53 Calm 16.09 A Few Clouds FEW120 14.4 7.8 20 12.8 65% 76.33 1017.4
14 20:53 Calm 16.09 Overcast SCT075 OVC110 15.6 7.2 58% 76.3 1017.1
14 19:53 NW 17 G 35 16.09 Mostly Cloudy BKN100 17.8 7.2 50% 76.25 1016.4
14 18:53 NW 19 G 33 16.09 Fair CLR 20 8.9 49% 76.2 1015.6
14 17:53 Vrbl 11 G 28 16.09 A Few Clouds FEW120 17.8 8.3 54% 76.23 1016.5
14 16:53 NW 11 16.09 Mostly Cloudy SCT040 BKN140 17.2 12.2 73% 76.25 1017.0
14 15:53 NW 9 12.87 Mostly Cloudy FEW050 BKN120 12.8 10 21.1 10 83% 76.25 1017.4
14 14:53 N 20 G 44 4.02 Thunderstorm Heavy Rain FEW050 BKN070 BKN090 13.9 9.4 74% 76.3 1018.2
14 13:53 N 11 G 28 16.09 Mostly Cloudy SCT035 BKN120 18.9 8.9 52% 76.25 1016.7
14 12:53 NW 22 G 43 16.09 Partly Cloudy FEW035 SCT120 21.1 10 49% 76.25 1016.6
14 11:53 NW 19 G 39 16.09 Partly Cloudy SCT031 SCT120 19.4 10.6 57% 76.3 1017.3
14 10:53 NW 22 G 37 16.09 Partly Cloudy FEW028 SCT100 18.3 10.6 61% 76.33 1017.5
14 09:53 NW 15 G 33 16.09 Partly Cloudy SCT026 SCT100 16.7 10 17.8 7.2 65% 76.33 1017.7
14 08:53 NW 17 G 30 16.09 Partly Cloudy SCT019 SCT100 16.1 10.6 70% 76.33 1017.8
14 07:53 NW 17 G 31 16.09 A Few Clouds FEW016 15 10.6 75% 76.35 1017.9
14 06:53 Vrbl 9 16.09 Fair CLR 12.8 10 83% 76.33 1018.0
14 05:53 Calm 16.09 Mostly Cloudy BKN120 10 7.8 86% 76.33 1018.3
14 04:53 Calm 16.09 Partly Cloudy SCT110 7.8 6.1 89% 76.3 1018.3
14 03:53 Vrbl 6 16.09 Partly Cloudy SCT110 8.3 6.1 12.8 7.2 86% 76.3 1018.3
14 02:53 Calm 16.09 Mostly Cloudy BKN110 8.3 6.7 90% 76.33 1018.5
14 01:53 Calm 16.09 Mostly Cloudy BKN110 8.9 7.2 89% 76.3 1018.4
14 00:53 W 6 16.09 Mostly Cloudy BKN180 9.4 7.8 90% 76.3 1018.5
13 23:53 SW 6 16.09 Overcast OVC120 10.6 8.9 89% 76.33 1018.5
13 22:53 SW 6 16.09 Mostly Cloudy BKN095 11.7 9.4 86% 76.3 1018.4
13 21:53 Calm 16.09 A Few Clouds FEW100 FEW120 12.8 10 13.9 11.1 83% 76.3 1018.3
13 20:53 Calm 16.09 Mostly Cloudy BKN100 12.8 9.4 80% 76.33 1018.5
13 19:53 Calm 16.09 Overcast BKN100 OVC120 13.3 8.9 75% 76.33 1018.4
13 18:53 Calm 16.09 Mostly Cloudy BKN100 13.3 8.3 72% 76.3 1018.3
13 17:53 SW 7 16.09 Mostly Cloudy SCT048 BKN060 13.3 10 81% 76.33 1018.5
13 16:53 Calm 16.09 Mostly Cloudy BKN011 BKN017 BKN023 12.2 8.9 80% 76.38 1019.4
13 15:53 S 7 16.09 Overcast BKN011 OVC016 11.1 8.3 11.1 7.2 83% 76.38 1019.5
13 14:53 SW 6 16.09 Overcast SCT004 OVC015 10 7.8 86% 76.4 1019.7
13 13:53 S 7 11.27 Overcast SCT004 OVC010 9.4 7.8 90% 9 76.4 1019.7
13 12:53 SW 7 4.83 Fog/Mist SCT008 OVC017 8.9 7.2 89% 8 76.4 1020.0
13 11:53 Calm 4.02 Fog/Mist OVC017 8.3 6.7 90% 76.43 1020.1
13 10:53 Calm 2.41 Light Rain Fog/Mist OVC017 7.8 6.7 93% 76.4 1020.0
13 09:53 S 6 3.22 Light Rain Fog/Mist OVC018 7.2 6.1 7.2 6.7 93% 76.4 1019.9
13 08:53 SW 6 3.22 Light Rain Fog/Mist FEW005 OVC013 7.2 6.1 93% 76.38 1019.7
13 07:53 SW 7 2.41 Light Rain Fog/Mist OVC012 7.2 5.6 90% 6 76.35 1019.2
13 06:53 Vrbl 7 6.44 Light Rain Fog/Mist OVC012 6.7 5.6 93% 6 76.35 1019.2
13 05:53 SW 7 4.83 Light Rain Fog/Mist OVC015 6.7 5.6 93% 6 76.33 1019.0
Date Time (akdt) Wind (kph) Vis. (km) Weather Sky Cond. Air Dwpt Max. Min. Relative Humidity Wind Chill (°C) Heat Index (°C) altimeter (cm) sea level (mb) 1 hr 3 hr 6 hr
6 hour
Temperature (ºC) Pressure Precipitation (cm)